Location: Newark
(27.9675°N, 86.8869°E)
Time: 09:34:01
(UTC+00:00)

Altair - Pass Details

Date: 24 October 2019
Orbit: 1502 x 1682 km, 47.2° (Epoch: 13 November)

Event Time Altitude Azimuth Distance (km) Brightness Sun altitude
Rises 09:01:22 0° 311° (NW) 4,815 10.3 30.3°
Reaches altitude 10° 09:04:52 10° 320° (NW) 3,854 9.7 29.6°
Maximum altitude 09:13:48 36° 25° (NNE) 2,402 8.4 28.0°
Drops below altitude 10° 09:22:53 10° 89° (E) 3,936 9.2 26.3°
Sets 09:26:28 0° 98° (E) 4,928 9.7 25.6°
